Tracking 25689 objects as of 7-Jul-2022
HD Live streaming from Space Station
objects crossing your sky now

FENGYUN 1C DEB

Track FENGYUN 1C DEB now!
10-day predictions


NORAD ID: 30557
Int'l Code: 1999-025AKX
Perigee: 836.8 km
Apogee: 947.2 km
Inclination: 99.0 °
Period: 102.7 minutes
Semi major axis: 7262 km
RCS: 0.043 m2 (small)
Launch date: May 10, 1999
Source: People's Republic of China (PRC)
Launch site: Taiyaun Space Center, China (TSC)

Note: This is SATELLITE DEBRIS
aabbcc
Your satellite tracking list
Your tracking list is empty




NASA's NSSDC Master Catalog

Two Line Element Set (TLE):
1 30557U 99025AKX 22187.71335369  .00000517  00000-0  35480-3 0  9998
2 30557  99.0051 249.5811 0076006 139.0833 221.6071 14.02587582786622
Source of the keplerian elements: AFSPC